Home   Weather   Kulmbach   Past weeks

Flag for Germany Past Weather in Kulmbach, Bavaria, Germany — Yesterday and Last 2 Weeks

Now
66 °F

Passing clouds.


Feels Like: 66 °F
Forecast: 47 / 77 °F
Wind: 8 mph from Northeast

Location: Hof Airport

Current Time: Aug 30, 2016 at 7:15:58 PM

Latest Report: Aug 30, 2016 at 6:50 PM


Visibility: N/A

Pressure: 30.27 "Hg

Humidity: 35%

Dew Point: 37 °F

Location of KulmbachLocation

Past Weather in Kulmbach — Graph

°F

Kulmbach Temperature Yesterday

Maximum temperature yesterday: 75 °F (at 3:20 PM)
Minimum temperature yesterday: 61 °F (at 6:50 AM)
Average temperature yesterday: 69 °F

High & Low Weather Summary for the Past Weeks

 TemperatureHumidityPressure
High88 °F (Aug 27, 3:50 PM)94% (Aug 16, 6:20 AM)30.39 "Hg (Aug 16, 6:20 AM)
Low46 °F (Aug 18, 6:50 AM)24% (Aug 27, 4:20 PM)29.83 "Hg (Aug 18, 2:50 PM)
Average69 °F52%30.13 "Hg
* Reported Aug 15 5:20 PM — Aug 30 5:50 PM, Kulmbach, Weather by CustomWeather, © 2016

Note: Actual official high and low records may vary slightly from our data, if they occured in-between our weather recording intervals... More about our weather records

Advertising

Kulmbach Weather History for the Previous 24 Hours

Scroll right to see more
 ConditionsComfort  
Time TempWeatherWind HumidityBarometerVisibility
5:50 PM
Tue, Aug 30
68 °FPassing clouds.8 mph30%30.27 "HgN/A
5:20 PM68 °FPassing clouds.7 mph30%30.27 "HgN/A
4:50 PM68 °FPassing clouds.6 mph33%30.30 "HgN/A
4:20 PM68 °FPassing clouds.7 mph33%30.30 "HgN/A
3:50 PM68 °FPassing clouds.7 mph38%30.30 "HgN/A
3:20 PM68 °FPassing clouds.7 mph38%30.30 "HgN/A
2:50 PM66 °FPassing clouds.8 mph43%30.30 "HgN/A
2:20 PM66 °FPassing clouds.9 mph43%30.30 "HgN/A
1:50 PM64 °FPassing clouds.8 mph46%30.33 "HgN/A
1:20 PM64 °FPassing clouds.8 mph49%30.33 "HgN/A
12:50 PM64 °FPassing clouds.10 mph46%30.33 "HgN/A
12:20 PM63 °FPassing clouds.9 mph52%30.33 "HgN/A
11:50 AM61 °FPassing clouds.8 mph59%30.33 "HgN/A
11:20 AM61 °FPassing clouds.8 mph55%30.33 "HgN/A
10:50 AM59 °FPassing clouds.8 mph68%30.33 "HgN/A
10:20 AM59 °FPassing clouds.10 mph68%30.33 "HgN/A
9:50 AM55 °FPartly sunny.7 mph77%30.33 "HgN/A
9:20 AM55 °FPartly sunny.6 mph77%30.30 "HgN/A
8:50 AM54 °FOvercast.7 mph82%30.30 "HgN/A
8:20 AM54 °FMostly cloudy.7 mph88%30.30 "HgN/A
7:50 AM54 °FOvercast.7 mph88%30.30 "HgN/A
7:20 AM54 °FOvercast.7 mph88%30.27 "HgN/A
7:50 PM
Mon, Aug 29
66 °FPassing clouds.7 mph60%30.15 "HgN/A
7:20 PM66 °FPassing clouds.8 mph60%30.12 "HgN/A
Weather by CustomWeather, © 2016

See weather overviewHow to use our weather pages